Вернуться в каталог

NOAA 17 DEB

АктивенPO
NORAD 48747·DEBRIS·🇺🇸 United States

Запущен Jun 24, 2002 с Vandenberg Space Force Base

Loading…

Ближайшие Пролёты (ближайшие 24 часа)

TLE

СвежийSource: Space-Track

Эпоха: Sep 14, 2026, 04:49 UTC

1 48747U 02032CG  26257.20137402  .00029877  00000-0  24092-2 0  9990
2 48747  99.0303  35.1040 0017762  80.1923 280.1301 14.99718934290466

Отслеживайте NOAA 17 DEB в реальном времени с AllMySat

Download on the App Store